User: anonymous   Login
Location: Unspecified
(0.0000°N, 0.0000°E)
Time: 14:37:12
(UTC+00:00)
Language:

STARS - Orbit

View from above orbital plane
View from above orbital plane
View from above satellite
View from above satellite

Ground track
Ground track

The orbit data is extracted from the following two-line orbital elements,

1 33498U 09002G   17147.97464169 +.00000251 +00000-0 +42037-4 0  9992
2 33498 098.3217 321.2725 0012177 059.2922 065.4035 14.78563722448484
Epoch (UTC): 27 May 2017 23:23:29
Eccentricity: 0.0012177
inclination: 98.3217°
perigee height: 625 km
apogee height: 642 km
right ascension of ascending node: 321.2725°
argument of perigee: 59.2922°
revolutions per day: 14.78563722
mean anomaly at epoch: 65.4035°
orbit number at epoch: 44848

The dashed part of the orbit path shows where the satellite is in the earth's shadow,  

DLR